GFSSW_prec_cthk_000.txt.gz
RH
16 15 13 13 12 11 10 9 8 8 8 7 7 6 6 6 5 5 5 6 7 10 13 15 24 30 38 34 30 28 30 30 35 38 33 35 38 42 43 44 40 37 37 35 39
16 16 14 13 13 11 10 10 9 8 8 7 7 6 6 5 5 4 4 5 6 8 11 15 23 29 33 32 31 32 25 28 27 30 33 35 39 42 39 43 41 36 37 35 41
16 16 14 14 13 12 11 10 10 9 8 7 6 6 6 5 5 4 4 4 6 7 10 16 23 30 26 27 26 27 27 26 28 30 31 33 36 30 33 34 38 39 37 38 39
16 16 14 14 14 13 12 10 10 9 8 7 6 5 6 5 5 3 3 4 5 6 9 17 24 24 23 25 21 27 31 28 28 29 32 33 29 27 29 35 35 38 35 38 39
18 16 15 14 15 14 12 10 10 8 6 5 4 4 6 6 5 5 3 4 4 5 9 19 23 21 22 22 24 33 30 29 28 30 31 29 28 27 32 36 38 39 40 39 42
19 16 15 14 15 14 12 12 10 6 4 3 3 3 4 5 4 5 4 4 4 5 10 22 19 19 22 21 27 29 28 28 30 30 32 31 30 22 31 38 39 40 44 45 46
19 17 16 14 15 15 13 13 10 6 5 5 2 3 5 5 6 6 4 4 5 6 12 20 16 17 18 22 26 29 30 32 32 35 32 33 31 29 28 36 42 43 46 48 49
20 16 16 14 15 15 13 13 11 8 7 8 6 4 7 6 8 5 5 5 5 8 17 18 15 15 17 20 27 32 34 36 34 34 35 47 35 32 29 28 35 41 43 44 46
21 17 16 15 15 15 14 14 11 10 9 10 10 10 11 9 8 7 6 5 7 9 14 15 16 17 18 19 24 30 36 35 32 35 36 47 37 35 33 29 29 35 39 41 41
20 18 15 15 15 16 15 14 11 10 10 12 11 11 9 10 8 7 7 7 8 10 11 16 15 16 16 20 25 28 31 34 34 32 32 41 43 35 37 38 29 30 35 36 36
20 18 16 15 16 16 16 15 15 15 13 13 15 12 10 10 8 7 6 8 9 9 10 13 15 15 15 17 20 19 24 31 33 36 32 41 46 40 36 38 37 31 30 34 33
20 18 16 14 16 18 18 18 17 15 12 13 14 13 10 10 9 9 8 9 9 9 10 10 12 14 15 16 16 17 20 24 30 31 32 39 44 43 40 34 39 37 33 33 34
19 18 16 15 16 19 19 16 17 13 14 12 12 12 9 8 8 7 8 10 8 10 9 8 10 14 14 15 17 19 20 21 25 32 32 37 43 45 43 40 34 40 38 35 36
18 18 16 16 15 19 20 17 17 14 14 12 10 10 10 7 9 8 8 8 9 10 12 16 16 16 17 19 20 23 20 22 24 35 34 31 38 40 37 40 34 35 37 36 37
17 17 16 16 16 19 21 18 17 14 16 11 12 11 9 8 8 9 10 10 12 14 15 16 16 18 19 21 21 26 23 25 28 32 43 40 39 36 36 32 33 33 37 37 38
17 16 16 17 17 18 23 22 21 16 15 12 11 11 10 10 9 10 11 13 16 16 16 19 17 20 22 19 20 22 24 26 29 34 35 32 36 27 31 27 31 33 37 40 40
17 15 16 17 18 21 25 26 26 20 13 12 9 11 11 10 12 12 13 15 14 16 17 17 18 20 20 21 23 23 25 28 30 31 27 30 27 24 28 29 30 33 39 38 42
16 15 15 18 18 19 24 28 34 19 16 17 11 11 12 12 11 15 15 15 15 16 19 21 21 19 21 22 22 19 22 20 26 21 20 29 20 24 21 26 30 35 42 43 44
17 15 15 17 19 21 25 31 27 22 25 22 13 12 14 13 12 15 15 15 14 13 19 19 20 21 21 23 24 27 23 22 26 24 22 20 27 20 20 21 23 27 31 40 44
17 15 16 19 21 23 26 28 28 25 25 24 20 13 15 14 13 13 15 15 16 13 14 20 22 19 19 19 23 28 28 27 25 28 29 23 23 22 23 21 22 22 29 40 43
17 16 19 22 23 25 24 23 26 25 29 26 26 22 15 15 14 14 16 16 14 15 14 17 18 26 18 19 22 26 28 30 28 28 27 26 23 26 20 19 22 22 29 36 43
17 17 19 24 24 25 26 25 26 26 31 27 27 24 18 17 15 17 17 17 14 15 15 13 16 22 22 22 21 27 25 29 30 38 32 28 25 26 20 21 22 23 25 31 35
19 18 21 27 27 31 32 28 25 28 30 30 29 28 23 21 20 17 18 19 16 16 18 18 16 21 25 24 22 26 26 29 30 30 34 31 28 32 25 24 25 27 28 30 31
21 23 26 30 33 33 33 30 27 28 29 32 29 31 29 27 26 25 26 22 21 20 21 21 21 19 19 24 23 26 28 28 29 31 33 33 34 32 30 27 26 28 30 33 34
26 27 32 32 34 34 33 32 29 28 30 29 32 33 33 34 30 28 29 28 23 22 23 23 24 24 24 23 25 27 31 29 30 30 32 30 35 27 28 23 21 21 26 32 36
31 28 28 33 35 36 36 35 30 29 31 31 30 34 36 35 38 33 31 31 30 28 28 28 29 29 26 25 25 27 28 31 29 31 34 35 34 26 22 19 17 15 21 25 30
26 28 30 29 33 36 40 39 36 33 30 33 32 31 33 38 37 36 35 35 34 31 31 32 33 32 31 31 29 31 32 30 32 34 35 35 35 27 20 19 18 18 18 21 28

GFSSW_prec_cthk_003.txt.gz
RH
17 15 15 13 12 11 11 10 9 8 8 7 7 6 6 5 5 5 6 7 8 11 18 25 27 30 30 29 35 43 34 22 33 34 44 49 51 47 39 36 36 39 34 38 44
18 15 15 14 13 12 11 10 10 9 9 8 7 7 6 5 5 5 6 5 6 10 15 22 29 31 34 36 37 36 25 27 32 35 41 51 55 51 46 44 39 39 37 37 40
19 16 14 14 13 13 11 11 10 10 9 8 7 7 6 6 5 4 5 4 5 9 13 20 29 35 38 31 30 28 23 30 34 40 42 46 47 50 42 46 38 36 33 38 42
19 17 14 14 13 13 12 11 11 11 8 6 6 6 6 6 8 7 4 3 4 7 12 16 25 32 31 27 26 31 34 38 32 40 46 44 35 26 50 39 34 36 34 38 40
18 18 15 14 12 14 13 11 12 10 5 4 4 4 5 6 7 6 3 3 4 6 10 15 25 28 26 24 24 37 39 33 35 43 37 34 30 31 30 32 35 35 36 36 39
17 19 16 14 12 14 14 12 12 10 5 5 3 3 4 8 7 6 4 3 4 7 10 16 27 27 26 23 31 37 40 36 37 31 31 35 32 28 32 32 36 38 40 41 45
15 18 17 14 13 13 14 12 13 11 6 8 3 2 6 8 8 6 5 4 5 7 10 19 20 19 24 25 33 38 40 36 37 42 32 33 29 27 32 34 40 43 46 45 46
14 17 18 14 14 13 15 13 13 11 8 9 7 3 11 6 8 6 6 4 7 7 11 20 15 18 24 28 39 37 37 39 41 35 36 56 43 33 36 38 42 45 48 48 46
14 15 18 15 14 13 15 14 13 11 9 11 10 10 17 5 8 6 7 5 6 7 15 17 14 15 21 25 37 35 33 38 44 34 51 46 45 38 35 34 38 40 43 45 44
14 14 17 16 14 14 15 15 14 12 10 11 11 11 11 8 10 6 6 6 6 10 14 14 14 16 21 24 27 30 32 29 38 39 36 53 58 30 35 35 37 39 39 41 43
14 14 16 17 14 13 15 17 23 24 16 12 21 13 12 11 9 7 7 8 8 12 13 13 14 17 20 21 22 24 25 31 28 38 38 41 54 29 36 36 38 38 35 39 40
15 14 16 16 14 13 16 21 22 19 13 11 13 14 14 13 8 7 7 8 11 12 12 17 16 17 18 19 21 19 20 26 29 33 34 41 48 39 35 36 36 39 36 36 38
16 14 16 16 15 14 17 19 18 19 17 12 11 12 13 11 9 8 8 9 11 10 11 13 15 20 19 18 18 19 18 17 24 31 31 42 46 46 35 32 34 35 38 38 35
16 15 16 17 15 16 18 21 20 19 17 12 10 10 13 10 12 10 8 9 10 10 11 11 10 12 15 16 14 18 19 19 20 29 32 32 32 51 48 34 29 31 33 37 38
16 15 15 15 15 16 18 20 19 19 20 11 11 11 12 9 11 10 8 11 11 10 11 11 14 13 14 18 19 22 21 20 21 23 30 37 35 46 44 61 37 26 31 36 39
16 15 16 16 17 16 18 22 23 21 19 18 15 12 13 9 10 10 9 11 12 12 11 17 16 14 16 19 19 27 28 28 29 26 28 34 47 28 42 54 58 47 33 31 36
16 15 17 15 17 18 21 26 28 25 17 20 16 12 12 9 13 11 10 12 14 15 13 20 18 17 19 20 22 22 26 29 28 29 29 28 25 33 29 37 36 40 38 34 36
16 16 16 16 15 16 22 26 32 25 24 20 15 13 11 11 13 11 10 13 17 17 19 23 19 19 19 21 23 23 23 23 28 23 22 26 28 23 22 29 36 31 47 46 44
15 17 18 17 16 16 22 25 26 28 24 21 18 15 13 13 14 15 12 14 15 15 19 20 20 20 21 21 23 25 22 20 18 22 22 22 23 25 29 20 17 25 32 51 45
15 17 18 20 17 18 22 22 32 31 38 35 30 16 16 16 15 16 16 16 16 19 18 18 20 20 19 20 22 25 24 22 21 23 25 23 23 22 33 31 26 21 21 28 48
16 20 22 20 20 21 19 19 29 36 34 33 33 24 15 15 16 16 20 19 20 18 19 18 18 21 21 21 23 23 26 26 24 29 27 24 24 26 30 30 29 29 24 26 37
20 20 23 23 21 23 20 21 31 35 31 25 28 33 20 16 17 16 17 19 19 19 18 17 19 22 22 22 21 21 23 25 27 30 27 25 26 28 30 30 31 29 31 29 38
22 22 23 24 23 24 23 21 35 41 33 29 25 29 30 19 17 16 16 16 18 18 18 17 17 20 22 24 21 21 22 24 24 25 37 34 31 30 30 32 27 27 29 36 35
22 23 20 26 25 37 36 27 35 38 36 34 31 39 35 29 20 18 16 17 19 19 18 20 18 18 19 20 24 27 23 24 24 29 28 33 30 37 34 41 32 26 28 31 40
29 29 42 34 28 36 43 42 34 41 32 32 32 29 34 32 25 24 19 20 22 22 20 18 24 24 22 19 20 21 24 23 26 26 30 28 38 37 38 38 28 22 22 26 31
34 36 33 36 42 38 41 38 37 40 45 34 35 33 37 37 42 27 25 26 31 26 21 24 26 27 25 22 18 20 22 23 26 26 26 26 29 35 37 30 24 25 22 22 25
35 32 33 33 28 33 36 43 44 37 40 42 41 43 35 43 42 39 35 41 45 40 26 33 27 30 30 26 23 23 23 23 25 27 30 29 33 36 37 33 28 22 21 20 22

GFSSW_prec_cthk_006.txt.gz
RH
18 16 13 13 12 11 11 10 9 8 8 7 7 7 6 5 5 4 5 6 9 15 21 21 23 27 31 41 51 51 54 36 40 42 43 47 55 47 34 32 37 40 33 37 45
17 18 15 13 13 11 11 10 10 9 9 8 8 7 6 5 5 4 4 5 7 11 19 20 25 30 36 41 37 34 37 36 36 37 41 49 54 48 44 38 37 32 34 36 41
14 17 16 13 14 12 12 11 10 10 10 7 7 6 6 5 5 3 4 4 5 9 16 20 25 32 41 36 31 30 29 30 35 42 40 43 58 58 79 37 31 29 32 34 35
12 14 17 14 13 12 12 12 11 11 10 5 5 5 6 5 10 7 4 4 4 8 14 20 19 29 37 27 26 31 37 35 27 40 46 46 45 41 40 46 35 30 33 34 36
11 12 15 16 13 12 12 13 11 12 11 5 4 4 5 6 6 8 5 4 4 7 11 19 19 32 32 24 22 36 33 29 41 43 44 36 25 39 43 48 32 30 32 34 37
12 11 14 16 13 12 11 13 12 12 11 6 6 3 4 7 7 6 4 3 4 6 11 17 21 33 26 22 26 37 36 35 40 30 33 34 33 27 37 34 33 34 32 33 41
12 12 12 15 15 12 11 13 12 12 11 7 8 3 6 5 9 9 5 2 4 6 11 15 24 32 25 22 36 38 35 38 34 39 28 29 33 36 37 36 37 38 38 38 39
12 12 12 13 15 13 11 12 13 13 12 9 9 3 6 7 8 9 6 4 4 6 10 15 23 22 24 23 30 34 37 35 41 38 33 40 50 38 35 38 41 39 42 43 41
13 12 12 12 14 13 12 12 13 13 12 9 11 12 10 8 6 9 7 4 4 7 9 12 19 18 22 23 36 33 33 38 42 40 34 39 46 33 38 36 37 47 42 43 44
13 13 12 12 13 13 13 12 13 18 16 10 12 13 12 13 6 8 9 5 7 7 9 15 16 16 22 24 34 28 38 39 40 38 38 40 49 45 37 39 37 37 38 40 41
15 13 12 12 13 13 12 13 19 26 28 14 19 12 15 13 10 7 9 6 6 6 12 15 15 16 20 23 28 28 29 39 40 43 40 41 44 46 40 37 39 39 37 38 38
18 15 14 13 13 14 13 14 22 21 19 16 14 17 16 12 12 8 7 7 7 10 12 15 13 16 19 23 22 22 22 25 34 34 33 47 53 57 42 32 36 39 37 39 41
18 18 16 14 13 14 15 15 18 18 19 12 13 12 14 15 12 8 8 8 8 11 13 15 14 17 19 18 19 21 19 19 30 30 32 29 49 49 54 40 36 37 37 39 37
16 19 17 14 13 16 15 17 23 23 21 9 12 11 14 14 14 9 8 9 10 11 13 15 16 20 19 17 17 19 18 18 18 25 28 31 34 47 54 46 42 40 30 38 36
17 19 19 14 14 15 15 15 19 23 20 14 9 11 11 13 12 9 9 9 13 13 13 12 17 18 20 19 17 17 17 17 17 18 20 25 35 43 51 45 39 40 40 36 39
17 17 20 14 15 16 16 18 23 25 18 20 18 15 14 14 12 13 10 9 13 13 12 14 13 13 14 15 16 17 25 20 19 19 22 22 31 41 48 50 43 49 47 48 40
16 16 20 16 15 16 17 20 26 29 17 20 21 18 15 14 11 15 11 10 12 15 12 12 16 15 15 17 18 19 26 29 28 28 27 23 28 35 40 42 43 54 55 50 39
18 16 20 18 15 16 19 22 31 25 22 18 19 22 17 15 10 13 14 9 12 13 13 14 16 18 15 18 19 20 24 26 30 26 24 27 32 30 31 36 45 49 55 48 40
18 16 21 20 16 17 21 24 22 19 23 23 21 18 20 19 11 15 12 9 11 13 16 16 20 20 17 18 19 23 24 22 23 20 19 25 26 26 22 24 23 30 31 47 44
18 17 19 20 21 19 21 20 18 16 31 31 27 20 17 16 13 18 14 12 13 14 18 19 23 18 17 20 20 21 23 23 21 24 26 20 21 24 29 31 29 25 19 28 43
20 24 23 21 25 20 18 16 15 23 34 37 33 30 15 16 14 16 18 13 12 15 19 19 19 20 18 20 20 21 23 22 21 20 21 24 30 31 33 32 32 32 31 23 24
23 22 27 29 27 21 17 17 18 22 36 37 32 35 29 19 15 14 18 19 14 16 19 19 19 21 21 19 19 19 22 27 28 28 29 33 29 29 29 29 30 30 28 27 22
26 24 31 32 29 23 20 19 21 28 36 37 29 31 32 29 19 15 14 15 19 20 19 19 20 21 23 21 20 20 22 21 22 23 28 30 29 30 29 29 32 34 33 31 31
28 27 18 30 29 29 26 26 25 25 32 37 32 27 28 31 24 18 16 15 18 19 19 19 17 20 20 23 22 23 21 19 20 24 25 29 34 42 37 37 39 41 34 29 27
33 36 50 41 26 27 29 39 40 29 31 42 34 34 33 36 27 22 18 16 15 16 17 18 22 19 18 18 19 22 25 23 21 24 28 29 39 40 46 49 45 40 37 28 26
38 47 42 46 52 46 32 39 54 36 34 34 34 36 34 33 38 40 28 24 16 18 19 19 21 22 23 20 19 19 19 25 24 22 18 23 29 31 37 43 40 37 36 31 22
27 36 45 37 45 43 44 48 44 49 37 43 39 36 38 41 49 38 34 31 27 24 21 22 21 23 26 25 25 23 20 18 20 22 24 27 27 30 38 39 36 35 36 31 19

GFSSW_prec_cthk_009.txt.gz
RH
12 14 14 12 11 12 10 10 9 8 8 7 7 6 6 6 5 4 4 5 11 19 19 23 25 31 38 43 50 50 57 63 62 53 44 46 44 42 30 33 39 39 39 45 50
10 11 13 14 11 11 10 10 10 9 8 8 6 6 6 6 5 4 3 4 7 15 16 24 31 35 38 42 46 50 49 45 53 56 48 47 48 44 34 33 36 37 39 48 52
10 10 11 14 13 10 10 10 11 10 9 9 6 5 5 5 4 3 3 3 6 12 13 23 30 32 37 38 43 46 47 50 47 50 49 40 49 41 50 40 32 32 34 44 51
10 10 10 12 14 12 10 10 11 10 10 10 6 5 4 5 7 6 3 3 5 11 11 24 30 31 33 33 33 41 41 43 46 37 48 43 41 31 38 43 32 32 33 39 45
11 10 9 10 13 13 11 9 10 10 10 10 7 5 4 5 4 7 4 4 5 9 12 25 26 26 29 30 25 37 39 40 42 40 43 45 29 19 36 39 33 33 34 36 40
11 10 10 9 11 13 12 10 10 11 10 10 8 6 5 6 5 5 5 4 4 9 13 19 26 24 31 29 27 39 34 36 42 41 34 24 26 25 32 32 35 34 34 34 36
12 11 10 10 9 12 12 11 10 11 10 10 9 7 4 2 6 8 6 3 4 6 11 19 21 21 26 27 26 39 35 40 39 29 30 25 38 30 30 32 33 35 36 35 37
14 12 11 10 9 10 11 11 10 11 10 11 9 8 4 4 7 8 8 3 3 6 9 17 21 21 24 27 31 37 35 35 34 39 47 40 48 31 28 29 32 36 36 37 39
17 15 12 11 10 10 11 10 10 11 12 12 9 11 8 8 6 7 7 4 3 6 10 16 18 19 22 26 28 29 34 40 42 41 42 40 51 39 36 38 38 38 41 40 38
15 16 15 12 11 10 11 10 10 14 21 18 10 13 9 12 8 6 8 6 3 6 10 13 14 19 21 23 29 31 39 41 43 43 42 41 46 48 50 38 35 40 40 38 37
14 15 16 14 12 10 11 10 11 23 24 19 17 13 14 14 13 5 7 7 4 6 9 11 15 19 18 18 26 34 34 39 47 46 46 43 46 50 54 39 33 38 32 32 33
14 14 15 16 15 12 11 11 12 20 16 15 14 15 17 16 16 8 8 8 6 8 8 10 14 16 18 22 27 32 37 36 35 41 42 45 50 49 49 51 36 35 34 32 32
14 14 15 17 16 15 14 15 17 20 22 12 12 13 14 16 16 11 9 6 6 7 8 11 13 14 17 24 25 26 25 27 32 38 40 47 53 52 39 48 49 42 42 40 31
16 14 14 17 17 17 17 15 13 16 19 9 8 7 13 15 15 12 7 8 7 7 8 11 11 15 17 21 21 23 21 21 21 37 51 40 52 52 49 47 50 46 47 45 36
15 16 15 15 19 18 18 15 17 20 28 16 11 5 6 11 16 14 7 8 8 7 11 12 12 15 17 20 18 18 20 19 19 22 33 33 34 38 47 46 49 55 53 51 42
14 16 19 14 21 18 17 16 18 24 26 22 15 12 11 12 15 16 10 9 10 10 11 13 13 15 16 19 19 18 17 19 19 19 23 21 26 42 41 40 42 46 54 53 49
14 15 18 17 21 20 19 18 24 27 15 24 21 18 15 14 15 15 12 10 12 13 14 13 13 14 17 18 19 18 18 26 29 25 21 20 21 31 32 38 41 43 43 48 48
13 14 17 19 20 19 20 22 29 16 19 26 28 23 21 18 16 14 15 12 10 12 15 15 15 13 13 14 14 16 19 32 33 31 29 27 30 30 32 35 36 35 36 40 43
12 13 17 19 19 21 22 25 20 14 19 27 28 27 24 22 19 15 17 14 9 11 15 15 14 14 16 15 15 18 22 22 28 30 33 28 24 28 29 32 38 39 36 39 37
13 13 17 18 18 23 25 21 16 10 18 31 32 31 33 22 21 19 16 15 13 11 13 15 19 15 18 19 18 20 20 22 29 30 33 25 30 33 31 31 33 38 37 36 40
13 19 20 23 20 28 23 18 14 11 18 33 33 32 34 29 19 20 15 15 13 10 13 17 20 20 21 20 18 21 22 23 25 27 29 30 33 31 30 32 30 29 29 33 39
19 22 26 24 27 30 28 18 14 13 18 32 33 35 35 33 27 18 16 16 15 12 13 16 21 24 22 19 18 18 21 25 34 27 29 32 35 33 32 31 31 32 31 29 29
23 20 27 34 34 32 29 20 15 14 21 34 34 34 35 33 31 29 17 16 17 16 12 18 22 24 26 21 20 20 20 22 25 25 28 35 35 34 33 32 32 33 35 36 27
25 26 32 34 32 34 33 27 21 16 20 33 34 36 36 32 31 27 24 19 16 17 13 20 23 25 25 25 23 22 20 21 23 26 23 28 31 35 36 35 37 36 37 34 32
33 29 40 41 38 42 38 33 24 21 24 32 31 34 38 35 31 29 26 23 17 17 17 19 24 23 22 22 23 22 24 21 22 23 27 26 33 35 35 38 39 38 42 42 39
40 33 33 44 48 45 42 39 32 23 34 40 38 33 36 41 45 44 37 30 25 18 18 19 24 23 21 20 22 24 22 25 27 23 20 21 26 26 29 34 37 36 37 36 37
40 36 26 35 53 55 48 46 41 39 37 47 41 41 39 47 48 39 38 33 28 26 21 22 25 25 25 20 21 24 23 22 22 23 25 27 26 26 32 36 39 36 35 38 36